Machine Overzicht

Generator events en service beheer
Records
354,270
Machines
263
Starts
29,791
Warnings
20,390
25 resultaten · pagina 13922 van 14171
Dubbelklik service uren om te bewerken
ID Machine Gebeurtenis Tijd Uren Service Status USB ID
6243 150-006 XAS Fuel Monitor Event End Fill 99% 26-08-2024 15:37:18 10,619 500 OVER BEURT URGENT! 6F22683C19
6244 150-006 XAS Fuel Monitor Event End Fill 97% 26-08-2024 15:37:16 10,619 500 OVER BEURT URGENT! 6F22683C19
6245 150-006 XAS Fuel Monitor Event Start Fill 96% 26-08-2024 15:37:15 10,619 500 OVER BEURT URGENT! 6F22683C19
6246 150-006 XAS Fuel Monitor Event End Fill 97% 26-08-2024 15:37:14 10,619 500 OVER BEURT URGENT! 6F22683C19
6247 150-006 XAS Fuel Monitor Event Start Fill 95% 26-08-2024 15:37:13 10,619 500 OVER BEURT URGENT! 6F22683C19
6248 150-006 XAS Fuel Monitor Event Start Fill 94% 26-08-2024 15:37:03 10,619 500 OVER BEURT URGENT! 6F22683C19
6249 150-006 XAS Fuel Monitor Event End Fill 95% 26-08-2024 15:36:52 10,619 500 OVER BEURT URGENT! 6F22683C19
6238 200-043 AS Generator Over Current Warning 26-08-2024 15:30:02 753 500 OVER BEURT URGENT! 6F2A3055CE
6237 20-002 Battery Voltage 26-08-2024 15:27:40 3,371 500 OVER BEURT URGENT! 259251D29F0
6236 100-065XASB-S5 Engine Start 26-08-2024 14:49:09 945 500 OVER BEURT URGENT! 6B2AC176BD
6235 100-065XASB-S5 Power Door Open Shutdown 26-08-2024 14:46:46 945 500 OVER BEURT URGENT! 6B2AC176BD
6234 200-064XASB-S5 Engine Start 26-08-2024 14:26:00 432 500 Service nodig! 6E2CAE11DA
6233 OC004 Engine Stopped 26-08-2024 14:23:41 6,709 500 OVER BEURT URGENT! 6D23E1F877
6232 OC004 Engine Start 26-08-2024 14:21:24 6,709 500 OVER BEURT URGENT! 6D23E1F877
6231 OC004 Engine Stopped 26-08-2024 14:17:56 6,709 500 OVER BEURT URGENT! 6D23E1F877
6229 300-016XASB-S5 ECU Lamp 26-08-2024 13:56:57 814 500 OVER BEURT URGENT! 6E2CEFDBE7
6230 300-016XASB-S5 Engine Stopped 26-08-2024 13:56:45 814 500 OVER BEURT URGENT! 6E2CEFDBE7
6228 200-056XAS Engine Stopped 26-08-2024 13:53:02 1,033 500 OVER BEURT URGENT! 6F2AB6379B
6224 100-072XASB-S5 Fuel Monitor Event End Fill 99% 26-08-2024 13:52:34 546 500 OVER BEURT URGENT! 6F2AC3F7D8
6225 100-072XASB-S5 Fuel Monitor Event Start Fill 94% 26-08-2024 13:52:22 546 500 OVER BEURT URGENT! 6F2AC3F7D8
6226 100-072XASB-S5 Fuel Monitor Event Start Fill 95% 26-08-2024 13:52:06 546 500 OVER BEURT URGENT! 6F2AC3F7D8
6227 100-072XASB-S5 Fuel Monitor Event End Fill 99% 26-08-2024 13:51:52 546 500 OVER BEURT URGENT! 6F2AC3F7D8
6222 200-056XAS Engine Start 26-08-2024 13:47:56 1,033 500 OVER BEURT URGENT! 6F2AB6379B
6223 60-052XA-S5 Engine Start 26-08-2024 13:43:25 444 500 Service nodig! 2592ADB57D3
6218 60-052XA-S5 ECU Lamp 26-08-2024 13:41:06 444 500 Service nodig! 2592ADB57D3
348,026–348,050 van 354,270